<?xml version="1.0" encoding="UTF-8" standalone="no" ?>
<gpx xmlns="http://www.topografix.com/GPX/1/1" creator="MapSource 6.11.6" version="1.1" xmlns:xsi="http://www.w3.org/2001/XMLSchema-instance" xsi:schemaLocation="http://www.topografix.com/GPX/1/1 http://www.topografix.com/GPX/1/1/gpx.xsd">

  <metadata>
    <link href="http://www.garmin.com">
      <text>Garmin International</text>
    </link>
    <time>2009-10-17T14:51:17Z</time>
    <bounds maxlat="50.685138" maxlon="6.285177" minlat="50.667019" minlon="6.243550"/>
  </metadata>

  <trk>
    <name>Hasselbachgraben</name>
    <extensions>
      <gpxx:TrackExtension xmlns:gpxx="http://www.garmin.com/xmlschemas/GpxExtensions/v3" xmlns:xsi="http://www.w3.org/2001/XMLSchema-instance" xsi:schemaLocation="http://www.garmin.com/xmlschemas/GpxExtensions/v3 http://www.garmin.com/xmlschemas/GpxExtensions/v3/GpxExtensionsv3.xsd">
        <gpxx:DisplayColor>White</gpxx:DisplayColor>
      </gpxx:TrackExtension>
    </extensions>
    <trkseg>
      <trkpt lat="50.667040" lon="6.245869">
        <ele>0.000000</ele>
        <time>2009-07-27T11:05:43Z</time>
      </trkpt>
      <trkpt lat="50.667019" lon="6.245497">
        <ele>0.000000</ele>
        <time>2009-07-27T11:05:43Z</time>
      </trkpt>
      <trkpt lat="50.667184" lon="6.245360">
        <ele>0.000000</ele>
        <time>2009-07-27T11:05:43Z</time>
      </trkpt>
      <trkpt lat="50.667368" lon="6.245350">
        <ele>0.000000</ele>
        <time>2009-07-27T11:05:43Z</time>
      </trkpt>
      <trkpt lat="50.667670" lon="6.245396">
        <ele>0.000000</ele>
        <time>2009-07-27T11:05:43Z</time>
      </trkpt>
      <trkpt lat="50.667818" lon="6.245532">
        <ele>0.000000</ele>
        <time>2009-07-27T11:05:43Z</time>
      </trkpt>
      <trkpt lat="50.667971" lon="6.245642">
        <ele>0.000000</ele>
        <time>2009-07-27T11:05:43Z</time>
      </trkpt>
      <trkpt lat="50.668024" lon="6.245702">
        <ele>0.000000</ele>
        <time>2009-07-27T11:05:43Z</time>
      </trkpt>
      <trkpt lat="50.668092" lon="6.245880">
        <ele>0.000000</ele>
        <time>2009-07-27T11:05:43Z</time>
      </trkpt>
      <trkpt lat="50.668327" lon="6.245785">
        <ele>0.000000</ele>
        <time>2009-07-27T11:05:43Z</time>
      </trkpt>
      <trkpt lat="50.668509" lon="6.245683">
        <ele>0.000000</ele>
        <time>2009-07-27T11:05:43Z</time>
      </trkpt>
      <trkpt lat="50.668709" lon="6.245562">
        <ele>0.000000</ele>
        <time>2009-07-27T11:05:43Z</time>
      </trkpt>
      <trkpt lat="50.668952" lon="6.245339">
        <ele>0.000000</ele>
        <time>2009-07-27T11:05:43Z</time>
      </trkpt>
      <trkpt lat="50.669211" lon="6.245051">
        <ele>0.000000</ele>
        <time>2009-07-27T11:05:43Z</time>
      </trkpt>
      <trkpt lat="50.669408" lon="6.244821">
        <ele>0.000000</ele>
        <time>2009-07-27T11:05:43Z</time>
      </trkpt>
      <trkpt lat="50.669614" lon="6.244481">
        <ele>0.000000</ele>
        <time>2009-07-27T11:05:43Z</time>
      </trkpt>
      <trkpt lat="50.669881" lon="6.244075">
        <ele>0.000000</ele>
        <time>2009-07-27T11:05:43Z</time>
      </trkpt>
      <trkpt lat="50.670193" lon="6.243556">
        <ele>0.000000</ele>
        <time>2009-07-27T11:05:43Z</time>
      </trkpt>
      <trkpt lat="50.670303" lon="6.243550">
        <ele>0.000000</ele>
        <time>2009-07-27T11:05:43Z</time>
      </trkpt>
      <trkpt lat="50.670489" lon="6.243602">
        <ele>0.000000</ele>
        <time>2009-07-27T11:05:43Z</time>
      </trkpt>
      <trkpt lat="50.670571" lon="6.243680">
        <ele>0.000000</ele>
        <time>2009-07-27T11:05:43Z</time>
      </trkpt>
      <trkpt lat="50.670741" lon="6.243997">
        <ele>0.000000</ele>
        <time>2009-07-27T11:05:43Z</time>
      </trkpt>
      <trkpt lat="50.670875" lon="6.244271">
        <ele>0.000000</ele>
        <time>2009-07-27T11:05:43Z</time>
      </trkpt>
      <trkpt lat="50.671025" lon="6.244781">
        <ele>0.000000</ele>
        <time>2009-07-27T11:05:43Z</time>
      </trkpt>
      <trkpt lat="50.671090" lon="6.245059">
        <ele>0.000000</ele>
        <time>2009-07-27T11:05:43Z</time>
      </trkpt>
      <trkpt lat="50.671092" lon="6.245150">
        <ele>0.000000</ele>
        <time>2009-07-27T11:05:43Z</time>
      </trkpt>
      <trkpt lat="50.671061" lon="6.245297">
        <ele>0.000000</ele>
        <time>2009-07-27T11:05:43Z</time>
      </trkpt>
      <trkpt lat="50.670990" lon="6.245501">
        <ele>0.000000</ele>
        <time>2009-07-27T11:05:43Z</time>
      </trkpt>
      <trkpt lat="50.670947" lon="6.245622">
        <ele>0.000000</ele>
        <time>2009-07-27T11:05:43Z</time>
      </trkpt>
      <trkpt lat="50.670949" lon="6.245713">
        <ele>0.000000</ele>
        <time>2009-07-27T11:05:43Z</time>
      </trkpt>
      <trkpt lat="50.671033" lon="6.245835">
        <ele>0.000000</ele>
        <time>2009-07-27T11:05:43Z</time>
      </trkpt>
      <trkpt lat="50.671129" lon="6.245993">
        <ele>0.000000</ele>
        <time>2009-07-27T11:05:43Z</time>
      </trkpt>
      <trkpt lat="50.671180" lon="6.246182">
        <ele>0.000000</ele>
        <time>2009-07-27T11:05:43Z</time>
      </trkpt>
      <trkpt lat="50.671189" lon="6.246327">
        <ele>0.000000</ele>
        <time>2009-07-27T11:05:43Z</time>
      </trkpt>
      <trkpt lat="50.671175" lon="6.246464">
        <ele>0.000000</ele>
        <time>2009-07-27T11:05:43Z</time>
      </trkpt>
      <trkpt lat="50.671171" lon="6.246546">
        <ele>0.000000</ele>
        <time>2009-07-27T11:05:43Z</time>
      </trkpt>
      <trkpt lat="50.671219" lon="6.246634">
        <ele>0.000000</ele>
        <time>2009-07-27T11:05:43Z</time>
      </trkpt>
      <trkpt lat="50.671382" lon="6.246670">
        <ele>0.000000</ele>
        <time>2009-07-27T11:05:43Z</time>
      </trkpt>
      <trkpt lat="50.671505" lon="6.246736">
        <ele>0.000000</ele>
        <time>2009-07-27T11:05:43Z</time>
      </trkpt>
      <trkpt lat="50.671625" lon="6.246938">
        <ele>0.000000</ele>
        <time>2009-07-27T11:05:43Z</time>
      </trkpt>
      <trkpt lat="50.671701" lon="6.247206">
        <ele>0.000000</ele>
        <time>2009-07-27T11:05:43Z</time>
      </trkpt>
      <trkpt lat="50.671717" lon="6.247378">
        <ele>0.000000</ele>
        <time>2009-07-27T11:05:43Z</time>
      </trkpt>
      <trkpt lat="50.671733" lon="6.247586">
        <ele>0.000000</ele>
        <time>2009-07-27T11:05:43Z</time>
      </trkpt>
      <trkpt lat="50.671842" lon="6.247780">
        <ele>0.000000</ele>
        <time>2009-07-27T11:05:43Z</time>
      </trkpt>
      <trkpt lat="50.671869" lon="6.247933">
        <ele>0.000000</ele>
        <time>2009-07-27T11:05:43Z</time>
      </trkpt>
      <trkpt lat="50.671881" lon="6.248232">
        <ele>0.000000</ele>
        <time>2009-07-27T11:05:43Z</time>
      </trkpt>
      <trkpt lat="50.671886" lon="6.248432">
        <ele>0.000000</ele>
        <time>2009-07-27T11:05:43Z</time>
      </trkpt>
      <trkpt lat="50.671879" lon="6.248624">
        <ele>0.000000</ele>
        <time>2009-07-27T11:05:43Z</time>
      </trkpt>
      <trkpt lat="50.671843" lon="6.248799">
        <ele>0.000000</ele>
        <time>2009-07-27T11:05:43Z</time>
      </trkpt>
      <trkpt lat="50.671778" lon="6.248975">
        <ele>0.000000</ele>
        <time>2009-07-27T11:05:43Z</time>
      </trkpt>
      <trkpt lat="50.671780" lon="6.249075">
        <ele>0.000000</ele>
        <time>2009-07-27T11:05:43Z</time>
      </trkpt>
      <trkpt lat="50.671809" lon="6.249337">
        <ele>0.000000</ele>
        <time>2009-07-27T11:05:43Z</time>
      </trkpt>
      <trkpt lat="50.671805" lon="6.249629">
        <ele>0.000000</ele>
        <time>2009-07-27T11:05:43Z</time>
      </trkpt>
      <trkpt lat="50.671750" lon="6.250023">
        <ele>0.000000</ele>
        <time>2009-07-27T11:05:43Z</time>
      </trkpt>
      <trkpt lat="50.671636" lon="6.250330">
        <ele>0.000000</ele>
        <time>2009-07-27T11:05:43Z</time>
      </trkpt>
      <trkpt lat="50.671514" lon="6.250519">
        <ele>0.000000</ele>
        <time>2009-07-27T11:05:43Z</time>
      </trkpt>
      <trkpt lat="50.671299" lon="6.250741">
        <ele>0.000000</ele>
        <time>2009-07-27T11:05:43Z</time>
      </trkpt>
      <trkpt lat="50.671261" lon="6.250843">
        <ele>0.000000</ele>
        <time>2009-07-27T11:05:43Z</time>
      </trkpt>
      <trkpt lat="50.671204" lon="6.251137">
        <ele>0.000000</ele>
        <time>2009-07-27T11:05:43Z</time>
      </trkpt>
      <trkpt lat="50.671123" lon="6.251360">
        <ele>0.000000</ele>
        <time>2009-07-27T11:05:43Z</time>
      </trkpt>
      <trkpt lat="50.671018" lon="6.251576">
        <ele>0.000000</ele>
        <time>2009-07-27T11:05:43Z</time>
      </trkpt>
      <trkpt lat="50.670978" lon="6.251833">
        <ele>0.000000</ele>
        <time>2009-07-27T11:05:43Z</time>
      </trkpt>
      <trkpt lat="50.670984" lon="6.252069">
        <ele>0.000000</ele>
        <time>2009-07-27T11:05:43Z</time>
      </trkpt>
      <trkpt lat="50.671000" lon="6.252259">
        <ele>0.000000</ele>
        <time>2009-07-27T11:05:43Z</time>
      </trkpt>
      <trkpt lat="50.670982" lon="6.252496">
        <ele>0.000000</ele>
        <time>2009-07-27T11:05:43Z</time>
      </trkpt>
      <trkpt lat="50.670918" lon="6.252946">
        <ele>0.000000</ele>
        <time>2009-07-27T11:05:43Z</time>
      </trkpt>
      <trkpt lat="50.670885" lon="6.253275">
        <ele>0.000000</ele>
        <time>2009-07-27T11:05:43Z</time>
      </trkpt>
      <trkpt lat="50.670820" lon="6.253443">
        <ele>0.000000</ele>
        <time>2009-07-27T11:05:43Z</time>
      </trkpt>
      <trkpt lat="50.670699" lon="6.253723">
        <ele>0.000000</ele>
        <time>2009-07-27T11:05:43Z</time>
      </trkpt>
      <trkpt lat="50.670654" lon="6.253780">
        <ele>0.000000</ele>
        <time>2009-07-27T11:05:43Z</time>
      </trkpt>
      <trkpt lat="50.670496" lon="6.254171">
        <ele>0.000000</ele>
        <time>2009-07-27T11:05:43Z</time>
      </trkpt>
      <trkpt lat="50.670444" lon="6.254447">
        <ele>0.000000</ele>
        <time>2009-07-27T11:05:43Z</time>
      </trkpt>
      <trkpt lat="50.670397" lon="6.254668">
        <ele>0.000000</ele>
        <time>2009-07-27T11:05:43Z</time>
      </trkpt>
      <trkpt lat="50.670313" lon="6.254991">
        <ele>0.000000</ele>
        <time>2009-07-27T11:05:43Z</time>
      </trkpt>
      <trkpt lat="50.670250" lon="6.255259">
        <ele>0.000000</ele>
        <time>2009-07-27T11:05:43Z</time>
      </trkpt>
      <trkpt lat="50.670162" lon="6.255473">
        <ele>0.000000</ele>
        <time>2009-07-27T11:05:43Z</time>
      </trkpt>
      <trkpt lat="50.670045" lon="6.255653">
        <ele>0.000000</ele>
        <time>2009-07-27T11:05:43Z</time>
      </trkpt>
      <trkpt lat="50.669957" lon="6.255840">
        <ele>0.000000</ele>
        <time>2009-07-27T11:05:43Z</time>
      </trkpt>
      <trkpt lat="50.669881" lon="6.256071">
        <ele>0.000000</ele>
        <time>2009-07-27T11:05:43Z</time>
      </trkpt>
      <trkpt lat="50.669937" lon="6.256214">
        <ele>0.000000</ele>
        <time>2009-07-27T11:05:43Z</time>
      </trkpt>
      <trkpt lat="50.670024" lon="6.256227">
        <ele>0.000000</ele>
        <time>2009-07-27T11:05:43Z</time>
      </trkpt>
      <trkpt lat="50.670179" lon="6.256200">
        <ele>0.000000</ele>
        <time>2009-07-27T11:05:43Z</time>
      </trkpt>
      <trkpt lat="50.670305" lon="6.256129">
        <ele>0.000000</ele>
        <time>2009-07-27T11:05:43Z</time>
      </trkpt>
      <trkpt lat="50.670489" lon="6.256100">
        <ele>0.000000</ele>
        <time>2009-07-27T11:05:43Z</time>
      </trkpt>
      <trkpt lat="50.670617" lon="6.256129">
        <ele>0.000000</ele>
        <time>2009-07-27T11:05:43Z</time>
      </trkpt>
      <trkpt lat="50.670747" lon="6.256267">
        <ele>0.000000</ele>
        <time>2009-07-27T11:05:43Z</time>
      </trkpt>
      <trkpt lat="50.670887" lon="6.256568">
        <ele>0.000000</ele>
        <time>2009-07-27T11:05:43Z</time>
      </trkpt>
      <trkpt lat="50.671036" lon="6.256977">
        <ele>0.000000</ele>
        <time>2009-07-27T11:05:43Z</time>
      </trkpt>
      <trkpt lat="50.671144" lon="6.257162">
        <ele>0.000000</ele>
        <time>2009-07-27T11:05:43Z</time>
      </trkpt>
      <trkpt lat="50.671348" lon="6.257469">
        <ele>0.000000</ele>
        <time>2009-07-27T11:05:43Z</time>
      </trkpt>
      <trkpt lat="50.671520" lon="6.257677">
        <ele>0.000000</ele>
        <time>2009-07-27T11:05:43Z</time>
      </trkpt>
      <trkpt lat="50.671700" lon="6.257939">
        <ele>0.000000</ele>
        <time>2009-07-27T11:05:43Z</time>
      </trkpt>
      <trkpt lat="50.671798" lon="6.258188">
        <ele>0.000000</ele>
        <time>2009-07-27T11:05:43Z</time>
      </trkpt>
      <trkpt lat="50.671862" lon="6.258448">
        <ele>0.000000</ele>
        <time>2009-07-27T11:05:43Z</time>
      </trkpt>
      <trkpt lat="50.671904" lon="6.258737">
        <ele>0.000000</ele>
        <time>2009-07-27T11:05:43Z</time>
      </trkpt>
      <trkpt lat="50.671884" lon="6.259120">
        <ele>0.000000</ele>
        <time>2009-07-27T11:05:43Z</time>
      </trkpt>
      <trkpt lat="50.671795" lon="6.259507">
        <ele>0.000000</ele>
        <time>2009-07-27T11:05:43Z</time>
      </trkpt>
      <trkpt lat="50.671749" lon="6.259774">
        <ele>0.000000</ele>
        <time>2009-07-27T11:05:43Z</time>
      </trkpt>
      <trkpt lat="50.671759" lon="6.259964">
        <ele>0.000000</ele>
        <time>2009-07-27T11:05:43Z</time>
      </trkpt>
      <trkpt lat="50.671810" lon="6.260161">
        <ele>0.000000</ele>
        <time>2009-07-27T11:05:43Z</time>
      </trkpt>
      <trkpt lat="50.671830" lon="6.260260">
        <ele>0.000000</ele>
        <time>2009-07-27T11:05:43Z</time>
      </trkpt>
      <trkpt lat="50.671995" lon="6.260151">
        <ele>0.000000</ele>
        <time>2009-07-27T11:05:43Z</time>
      </trkpt>
      <trkpt lat="50.672121" lon="6.260107">
        <ele>0.000000</ele>
        <time>2009-07-27T11:05:43Z</time>
      </trkpt>
      <trkpt lat="50.672238" lon="6.260173">
        <ele>0.000000</ele>
        <time>2009-07-27T11:05:43Z</time>
      </trkpt>
      <trkpt lat="50.672293" lon="6.260288">
        <ele>0.000000</ele>
        <time>2009-07-27T11:05:43Z</time>
      </trkpt>
      <trkpt lat="50.672314" lon="6.260459">
        <ele>0.000000</ele>
        <time>2009-07-27T11:05:43Z</time>
      </trkpt>
      <trkpt lat="50.672320" lon="6.260705">
        <ele>0.000000</ele>
        <time>2009-07-27T11:05:43Z</time>
      </trkpt>
      <trkpt lat="50.672374" lon="6.260792">
        <ele>0.000000</ele>
        <time>2009-07-27T11:05:43Z</time>
      </trkpt>
      <trkpt lat="50.672508" lon="6.260848">
        <ele>0.000000</ele>
        <time>2009-07-27T11:05:43Z</time>
      </trkpt>
      <trkpt lat="50.672614" lon="6.260915">
        <ele>0.000000</ele>
        <time>2009-07-27T11:05:43Z</time>
      </trkpt>
      <trkpt lat="50.672709" lon="6.261273">
        <ele>0.000000</ele>
        <time>2009-07-27T11:05:43Z</time>
      </trkpt>
      <trkpt lat="50.672808" lon="6.261568">
        <ele>0.000000</ele>
        <time>2009-07-27T11:05:43Z</time>
      </trkpt>
      <trkpt lat="50.672859" lon="6.261737">
        <ele>0.000000</ele>
        <time>2009-07-27T11:05:43Z</time>
      </trkpt>
      <trkpt lat="50.673140" lon="6.261912">
        <ele>0.000000</ele>
        <time>2009-07-27T11:05:43Z</time>
      </trkpt>
      <trkpt lat="50.673229" lon="6.262016">
        <ele>0.000000</ele>
        <time>2009-07-27T11:05:43Z</time>
      </trkpt>
      <trkpt lat="50.673255" lon="6.262142">
        <ele>0.000000</ele>
        <time>2009-07-27T11:05:43Z</time>
      </trkpt>
      <trkpt lat="50.673272" lon="6.262341">
        <ele>0.000000</ele>
        <time>2009-07-27T11:05:43Z</time>
      </trkpt>
      <trkpt lat="50.673354" lon="6.262655">
        <ele>0.000000</ele>
        <time>2009-07-27T11:05:43Z</time>
      </trkpt>
      <trkpt lat="50.673403" lon="6.262752">
        <ele>0.000000</ele>
        <time>2009-07-27T11:05:43Z</time>
      </trkpt>
      <trkpt lat="50.673637" lon="6.262884">
        <ele>0.000000</ele>
        <time>2009-07-27T11:05:43Z</time>
      </trkpt>
      <trkpt lat="50.673803" lon="6.263047">
        <ele>0.000000</ele>
        <time>2009-07-27T11:05:43Z</time>
      </trkpt>
      <trkpt lat="50.673982" lon="6.263300">
        <ele>0.000000</ele>
        <time>2009-07-27T11:05:43Z</time>
      </trkpt>
      <trkpt lat="50.674085" lon="6.263494">
        <ele>0.000000</ele>
        <time>2009-07-27T11:05:43Z</time>
      </trkpt>
      <trkpt lat="50.674358" lon="6.264033">
        <ele>0.000000</ele>
        <time>2009-07-27T11:05:43Z</time>
      </trkpt>
      <trkpt lat="50.674586" lon="6.264402">
        <ele>0.000000</ele>
        <time>2009-07-27T11:05:43Z</time>
      </trkpt>
      <trkpt lat="50.674731" lon="6.264658">
        <ele>0.000000</ele>
        <time>2009-07-27T11:05:43Z</time>
      </trkpt>
      <trkpt lat="50.674941" lon="6.264991">
        <ele>0.000000</ele>
        <time>2009-07-27T11:05:43Z</time>
      </trkpt>
      <trkpt lat="50.675074" lon="6.265256">
        <ele>0.000000</ele>
        <time>2009-07-27T11:05:43Z</time>
      </trkpt>
      <trkpt lat="50.675094" lon="6.265364">
        <ele>0.000000</ele>
        <time>2009-07-27T11:05:43Z</time>
      </trkpt>
      <trkpt lat="50.675167" lon="6.265505">
        <ele>0.000000</ele>
        <time>2009-07-27T11:05:43Z</time>
      </trkpt>
      <trkpt lat="50.675220" lon="6.265539">
        <ele>0.000000</ele>
        <time>2009-07-27T11:05:43Z</time>
      </trkpt>
      <trkpt lat="50.675356" lon="6.265695">
        <ele>0.000000</ele>
        <time>2009-07-27T11:05:43Z</time>
      </trkpt>
      <trkpt lat="50.675501" lon="6.265959">
        <ele>0.000000</ele>
        <time>2009-07-27T11:05:43Z</time>
      </trkpt>
      <trkpt lat="50.675646" lon="6.266242">
        <ele>0.000000</ele>
        <time>2009-07-27T11:05:43Z</time>
      </trkpt>
      <trkpt lat="50.675758" lon="6.266335">
        <ele>0.000000</ele>
        <time>2009-07-27T11:05:43Z</time>
      </trkpt>
      <trkpt lat="50.675805" lon="6.266351">
        <ele>0.000000</ele>
        <time>2009-07-27T11:05:43Z</time>
      </trkpt>
      <trkpt lat="50.675936" lon="6.266516">
        <ele>0.000000</ele>
        <time>2009-07-27T11:05:43Z</time>
      </trkpt>
      <trkpt lat="50.676068" lon="6.266736">
        <ele>0.000000</ele>
        <time>2009-07-27T11:05:43Z</time>
      </trkpt>
      <trkpt lat="50.676142" lon="6.266895">
        <ele>0.000000</ele>
        <time>2009-07-27T11:05:43Z</time>
      </trkpt>
      <trkpt lat="50.676232" lon="6.267063">
        <ele>0.000000</ele>
        <time>2009-07-27T11:05:43Z</time>
      </trkpt>
      <trkpt lat="50.676363" lon="6.267228">
        <ele>0.000000</ele>
        <time>2009-07-27T11:05:43Z</time>
      </trkpt>
      <trkpt lat="50.676526" lon="6.267519">
        <ele>0.000000</ele>
        <time>2009-07-27T11:05:43Z</time>
      </trkpt>
      <trkpt lat="50.676649" lon="6.267812">
        <ele>0.000000</ele>
        <time>2009-07-27T11:05:43Z</time>
      </trkpt>
      <trkpt lat="50.676745" lon="6.268206">
        <ele>0.000000</ele>
        <time>2009-07-27T11:05:43Z</time>
      </trkpt>
      <trkpt lat="50.676726" lon="6.268399">
        <ele>0.000000</ele>
        <time>2009-07-27T11:05:43Z</time>
      </trkpt>
      <trkpt lat="50.676609" lon="6.268860">
        <ele>0.000000</ele>
        <time>2009-07-27T11:05:43Z</time>
      </trkpt>
      <trkpt lat="50.676559" lon="6.269172">
        <ele>0.000000</ele>
        <time>2009-07-27T11:05:43Z</time>
      </trkpt>
      <trkpt lat="50.676511" lon="6.269612">
        <ele>0.000000</ele>
        <time>2009-07-27T11:05:43Z</time>
      </trkpt>
      <trkpt lat="50.676516" lon="6.269803">
        <ele>0.000000</ele>
        <time>2009-07-27T11:05:43Z</time>
      </trkpt>
      <trkpt lat="50.676606" lon="6.270170">
        <ele>0.000000</ele>
        <time>2009-07-27T11:05:43Z</time>
      </trkpt>
      <trkpt lat="50.676659" lon="6.270231">
        <ele>0.000000</ele>
        <time>2009-07-27T11:05:43Z</time>
      </trkpt>
      <trkpt lat="50.676819" lon="6.270167">
        <ele>0.000000</ele>
        <time>2009-07-27T11:05:43Z</time>
      </trkpt>
      <trkpt lat="50.677054" lon="6.270081">
        <ele>0.000000</ele>
        <time>2009-07-27T11:05:43Z</time>
      </trkpt>
      <trkpt lat="50.677435" lon="6.270040">
        <ele>0.000000</ele>
        <time>2009-07-27T11:05:43Z</time>
      </trkpt>
      <trkpt lat="50.677667" lon="6.270081">
        <ele>0.000000</ele>
        <time>2009-07-27T11:05:43Z</time>
      </trkpt>
      <trkpt lat="50.677954" lon="6.270238">
        <ele>0.000000</ele>
        <time>2009-07-27T11:05:43Z</time>
      </trkpt>
      <trkpt lat="50.678099" lon="6.270493">
        <ele>0.000000</ele>
        <time>2009-07-27T11:05:43Z</time>
      </trkpt>
      <trkpt lat="50.678211" lon="6.270850">
        <ele>0.000000</ele>
        <time>2009-07-27T11:05:43Z</time>
      </trkpt>
      <trkpt lat="50.678242" lon="6.271167">
        <ele>0.000000</ele>
        <time>2009-07-27T11:05:43Z</time>
      </trkpt>
      <trkpt lat="50.678244" lon="6.271285">
        <ele>0.000000</ele>
        <time>2009-07-27T11:05:43Z</time>
      </trkpt>
      <trkpt lat="50.678237" lon="6.271449">
        <ele>0.000000</ele>
        <time>2009-07-27T11:05:43Z</time>
      </trkpt>
      <trkpt lat="50.678306" lon="6.271700">
        <ele>0.000000</ele>
        <time>2009-07-27T11:05:43Z</time>
      </trkpt>
      <trkpt lat="50.678361" lon="6.271815">
        <ele>0.000000</ele>
        <time>2009-07-27T11:05:43Z</time>
      </trkpt>
      <trkpt lat="50.678367" lon="6.272088">
        <ele>0.000000</ele>
        <time>2009-07-27T11:05:43Z</time>
      </trkpt>
      <trkpt lat="50.678367" lon="6.272333">
        <ele>0.000000</ele>
        <time>2009-07-27T11:05:43Z</time>
      </trkpt>
      <trkpt lat="50.678308" lon="6.272537">
        <ele>0.000000</ele>
        <time>2009-07-27T11:05:43Z</time>
      </trkpt>
      <trkpt lat="50.678194" lon="6.272853">
        <ele>0.000000</ele>
        <time>2009-07-27T11:05:43Z</time>
      </trkpt>
      <trkpt lat="50.678157" lon="6.273000">
        <ele>0.000000</ele>
        <time>2009-07-27T11:05:43Z</time>
      </trkpt>
      <trkpt lat="50.678231" lon="6.273442">
        <ele>0.000000</ele>
        <time>2009-07-27T11:05:43Z</time>
      </trkpt>
      <trkpt lat="50.678313" lon="6.273983">
        <ele>0.000000</ele>
        <time>2009-07-27T11:05:43Z</time>
      </trkpt>
      <trkpt lat="50.678348" lon="6.274472">
        <ele>0.000000</ele>
        <time>2009-07-27T11:05:43Z</time>
      </trkpt>
      <trkpt lat="50.678383" lon="6.274752">
        <ele>0.000000</ele>
        <time>2009-07-27T11:05:43Z</time>
      </trkpt>
      <trkpt lat="50.678498" lon="6.275219">
        <ele>0.000000</ele>
        <time>2009-07-27T11:05:43Z</time>
      </trkpt>
      <trkpt lat="50.678580" lon="6.275751">
        <ele>0.000000</ele>
        <time>2009-07-27T11:05:43Z</time>
      </trkpt>
      <trkpt lat="50.678636" lon="6.275911">
        <ele>0.000000</ele>
        <time>2009-07-27T11:05:43Z</time>
      </trkpt>
      <trkpt lat="50.678750" lon="6.276077">
        <ele>0.000000</ele>
        <time>2009-07-27T11:05:43Z</time>
      </trkpt>
      <trkpt lat="50.678815" lon="6.276392">
        <ele>0.000000</ele>
        <time>2009-07-27T11:05:43Z</time>
      </trkpt>
      <trkpt lat="50.678856" lon="6.276662">
        <ele>0.000000</ele>
        <time>2009-07-27T11:05:43Z</time>
      </trkpt>
      <trkpt lat="50.678843" lon="6.276845">
        <ele>0.000000</ele>
        <time>2009-07-27T11:05:43Z</time>
      </trkpt>
      <trkpt lat="50.678878" lon="6.276870">
        <ele>0.000000</ele>
        <time>2009-07-27T11:05:43Z</time>
      </trkpt>
      <trkpt lat="50.679017" lon="6.276871">
        <ele>0.000000</ele>
        <time>2009-07-27T11:05:43Z</time>
      </trkpt>
      <trkpt lat="50.679159" lon="6.276781">
        <ele>0.000000</ele>
        <time>2009-07-27T11:05:43Z</time>
      </trkpt>
      <trkpt lat="50.679416" lon="6.276630">
        <ele>0.000000</ele>
        <time>2009-07-27T11:05:43Z</time>
      </trkpt>
      <trkpt lat="50.679647" lon="6.276398">
        <ele>0.000000</ele>
        <time>2009-07-27T11:05:43Z</time>
      </trkpt>
      <trkpt lat="50.679842" lon="6.276323">
        <ele>0.000000</ele>
        <time>2009-07-27T11:05:43Z</time>
      </trkpt>
      <trkpt lat="50.680057" lon="6.276374">
        <ele>0.000000</ele>
        <time>2009-07-27T11:05:43Z</time>
      </trkpt>
      <trkpt lat="50.680223" lon="6.276574">
        <ele>0.000000</ele>
        <time>2009-07-27T11:05:43Z</time>
      </trkpt>
      <trkpt lat="50.680363" lon="6.276839">
        <ele>0.000000</ele>
        <time>2009-07-27T11:05:43Z</time>
      </trkpt>
      <trkpt lat="50.680403" lon="6.277073">
        <ele>0.000000</ele>
        <time>2009-07-27T11:05:43Z</time>
      </trkpt>
      <trkpt lat="50.680517" lon="6.277521">
        <ele>0.000000</ele>
        <time>2009-07-27T11:05:43Z</time>
      </trkpt>
      <trkpt lat="50.680806" lon="6.278023">
        <ele>0.000000</ele>
        <time>2009-07-27T11:05:43Z</time>
      </trkpt>
      <trkpt lat="50.680958" lon="6.278306">
        <ele>0.000000</ele>
        <time>2009-07-27T11:05:43Z</time>
      </trkpt>
      <trkpt lat="50.681114" lon="6.278560">
        <ele>0.000000</ele>
        <time>2009-07-27T11:05:43Z</time>
      </trkpt>
      <trkpt lat="50.681290" lon="6.278669">
        <ele>0.000000</ele>
        <time>2009-07-27T11:05:43Z</time>
      </trkpt>
      <trkpt lat="50.681448" lon="6.278778">
        <ele>0.000000</ele>
        <time>2009-07-27T11:05:43Z</time>
      </trkpt>
      <trkpt lat="50.681679" lon="6.278992">
        <ele>0.000000</ele>
        <time>2009-07-27T11:05:43Z</time>
      </trkpt>
      <trkpt lat="50.681828" lon="6.279210">
        <ele>0.000000</ele>
        <time>2009-07-27T11:05:43Z</time>
      </trkpt>
      <trkpt lat="50.682030" lon="6.279426">
        <ele>0.000000</ele>
        <time>2009-07-27T11:05:43Z</time>
      </trkpt>
      <trkpt lat="50.682411" lon="6.279877">
        <ele>0.000000</ele>
        <time>2009-07-27T11:05:43Z</time>
      </trkpt>
      <trkpt lat="50.682685" lon="6.280253">
        <ele>0.000000</ele>
        <time>2009-07-27T11:05:43Z</time>
      </trkpt>
      <trkpt lat="50.682912" lon="6.280558">
        <ele>0.000000</ele>
        <time>2009-07-27T11:05:43Z</time>
      </trkpt>
      <trkpt lat="50.683239" lon="6.280958">
        <ele>0.000000</ele>
        <time>2009-07-27T11:05:43Z</time>
      </trkpt>
      <trkpt lat="50.683311" lon="6.281072">
        <ele>0.000000</ele>
        <time>2009-07-27T11:05:43Z</time>
      </trkpt>
      <trkpt lat="50.683454" lon="6.281254">
        <ele>0.000000</ele>
        <time>2009-07-27T11:05:43Z</time>
      </trkpt>
      <trkpt lat="50.683698" lon="6.281532">
        <ele>0.000000</ele>
        <time>2009-07-27T11:05:43Z</time>
      </trkpt>
      <trkpt lat="50.683946" lon="6.281772">
        <ele>0.000000</ele>
        <time>2009-07-27T11:05:43Z</time>
      </trkpt>
      <trkpt lat="50.684089" lon="6.281955">
        <ele>0.000000</ele>
        <time>2009-07-27T11:05:43Z</time>
      </trkpt>
      <trkpt lat="50.684301" lon="6.282379">
        <ele>0.000000</ele>
        <time>2009-07-27T11:05:43Z</time>
      </trkpt>
      <trkpt lat="50.684440" lon="6.282626">
        <ele>0.000000</ele>
        <time>2009-07-27T11:05:43Z</time>
      </trkpt>
      <trkpt lat="50.684572" lon="6.282818">
        <ele>0.000000</ele>
        <time>2009-07-27T11:05:43Z</time>
      </trkpt>
      <trkpt lat="50.684666" lon="6.283159">
        <ele>0.000000</ele>
        <time>2009-07-27T11:05:43Z</time>
      </trkpt>
      <trkpt lat="50.684808" lon="6.283542">
        <ele>0.000000</ele>
        <time>2009-07-27T11:05:43Z</time>
      </trkpt>
      <trkpt lat="50.684986" lon="6.284005">
        <ele>0.000000</ele>
        <time>2009-07-27T11:05:43Z</time>
      </trkpt>
      <trkpt lat="50.685099" lon="6.284389">
        <ele>0.000000</ele>
        <time>2009-07-27T11:05:43Z</time>
      </trkpt>
      <trkpt lat="50.685138" lon="6.284551">
        <ele>0.000000</ele>
        <time>2009-07-27T11:05:43Z</time>
      </trkpt>
      <trkpt lat="50.685129" lon="6.284906">
        <ele>0.000000</ele>
        <time>2009-07-27T11:05:43Z</time>
      </trkpt>
      <trkpt lat="50.685014" lon="6.285177">
        <ele>0.000000</ele>
        <time>2009-07-27T11:05:43Z</time>
      </trkpt>
      <trkpt lat="50.684927" lon="6.285173">
        <ele>0.000000</ele>
        <time>2009-07-27T11:05:43Z</time>
      </trkpt>
      <trkpt lat="50.684705" lon="6.285085">
        <ele>0.000000</ele>
        <time>2009-07-27T11:05:43Z</time>
      </trkpt>
      <trkpt lat="50.684164" lon="6.284907">
        <ele>0.000000</ele>
        <time>2009-07-27T11:05:43Z</time>
      </trkpt>
      <trkpt lat="50.683581" lon="6.284714">
        <ele>0.000000</ele>
        <time>2009-07-27T11:05:43Z</time>
      </trkpt>
      <trkpt lat="50.682824" lon="6.284484">
        <ele>0.000000</ele>
        <time>2009-07-27T11:05:43Z</time>
      </trkpt>
      <trkpt lat="50.682358" lon="6.284329">
        <ele>0.000000</ele>
        <time>2009-07-27T11:05:43Z</time>
      </trkpt>
      <trkpt lat="50.682196" lon="6.284311">
        <ele>0.000000</ele>
        <time>2009-07-27T11:05:43Z</time>
      </trkpt>
      <trkpt lat="50.681612" lon="6.284318">
        <ele>0.000000</ele>
        <time>2009-07-27T11:05:43Z</time>
      </trkpt>
      <trkpt lat="50.681507" lon="6.283769">
        <ele>0.000000</ele>
        <time>2009-07-27T11:05:43Z</time>
      </trkpt>
      <trkpt lat="50.681384" lon="6.283221">
        <ele>0.000000</ele>
        <time>2009-07-27T11:05:43Z</time>
      </trkpt>
      <trkpt lat="50.681240" lon="6.282729">
        <ele>0.000000</ele>
        <time>2009-07-27T11:05:43Z</time>
      </trkpt>
      <trkpt lat="50.681082" lon="6.282156">
        <ele>0.000000</ele>
        <time>2009-07-27T11:05:43Z</time>
      </trkpt>
      <trkpt lat="50.680951" lon="6.281736">
        <ele>0.000000</ele>
        <time>2009-07-27T11:05:43Z</time>
      </trkpt>
      <trkpt lat="50.680822" lon="6.281407">
        <ele>0.000000</ele>
        <time>2009-07-27T11:05:43Z</time>
      </trkpt>
      <trkpt lat="50.680662" lon="6.280979">
        <ele>0.000000</ele>
        <time>2009-07-27T11:05:43Z</time>
      </trkpt>
      <trkpt lat="50.680546" lon="6.280740">
        <ele>0.000000</ele>
        <time>2009-07-27T11:05:43Z</time>
      </trkpt>
      <trkpt lat="50.680468" lon="6.280590">
        <ele>0.000000</ele>
        <time>2009-07-27T11:05:43Z</time>
      </trkpt>
      <trkpt lat="50.680356" lon="6.280497">
        <ele>0.000000</ele>
        <time>2009-07-27T11:05:43Z</time>
      </trkpt>
      <trkpt lat="50.680176" lon="6.280225">
        <ele>0.000000</ele>
        <time>2009-07-27T11:05:43Z</time>
      </trkpt>
      <trkpt lat="50.679990" lon="6.279945">
        <ele>0.000000</ele>
        <time>2009-07-27T11:05:43Z</time>
      </trkpt>
      <trkpt lat="50.679797" lon="6.279601">
        <ele>0.000000</ele>
        <time>2009-07-27T11:05:43Z</time>
      </trkpt>
      <trkpt lat="50.679616" lon="6.279275">
        <ele>0.000000</ele>
        <time>2009-07-27T11:05:43Z</time>
      </trkpt>
      <trkpt lat="50.679526" lon="6.279135">
        <ele>0.000000</ele>
        <time>2009-07-27T11:05:43Z</time>
      </trkpt>
      <trkpt lat="50.679378" lon="6.278970">
        <ele>0.000000</ele>
        <time>2009-07-27T11:05:43Z</time>
      </trkpt>
      <trkpt lat="50.679219" lon="6.278861">
        <ele>0.000000</ele>
        <time>2009-07-27T11:05:43Z</time>
      </trkpt>
      <trkpt lat="50.679038" lon="6.278781">
        <ele>0.000000</ele>
        <time>2009-07-27T11:05:43Z</time>
      </trkpt>
      <trkpt lat="50.678695" lon="6.278691">
        <ele>0.000000</ele>
        <time>2009-07-27T11:05:43Z</time>
      </trkpt>
      <trkpt lat="50.678462" lon="6.278632">
        <ele>0.000000</ele>
        <time>2009-07-27T11:05:43Z</time>
      </trkpt>
      <trkpt lat="50.678076" lon="6.278436">
        <ele>0.000000</ele>
        <time>2009-07-27T11:05:43Z</time>
      </trkpt>
      <trkpt lat="50.677882" lon="6.278265">
        <ele>0.000000</ele>
        <time>2009-07-27T11:05:43Z</time>
      </trkpt>
      <trkpt lat="50.677608" lon="6.277936">
        <ele>0.000000</ele>
        <time>2009-07-27T11:05:43Z</time>
      </trkpt>
      <trkpt lat="50.677462" lon="6.277616">
        <ele>0.000000</ele>
        <time>2009-07-27T11:05:43Z</time>
      </trkpt>
      <trkpt lat="50.677277" lon="6.277118">
        <ele>0.000000</ele>
        <time>2009-07-27T11:05:43Z</time>
      </trkpt>
      <trkpt lat="50.677089" lon="6.276737">
        <ele>0.000000</ele>
        <time>2009-07-27T11:05:43Z</time>
      </trkpt>
      <trkpt lat="50.676948" lon="6.276400">
        <ele>0.000000</ele>
        <time>2009-07-27T11:05:43Z</time>
      </trkpt>
      <trkpt lat="50.676758" lon="6.275938">
        <ele>0.000000</ele>
        <time>2009-07-27T11:05:43Z</time>
      </trkpt>
      <trkpt lat="50.676672" lon="6.275706">
        <ele>0.000000</ele>
        <time>2009-07-27T11:05:43Z</time>
      </trkpt>
      <trkpt lat="50.676519" lon="6.275133">
        <ele>0.000000</ele>
        <time>2009-07-27T11:05:43Z</time>
      </trkpt>
      <trkpt lat="50.676374" lon="6.274596">
        <ele>0.000000</ele>
        <time>2009-07-27T11:05:43Z</time>
      </trkpt>
      <trkpt lat="50.676259" lon="6.274129">
        <ele>0.000000</ele>
        <time>2009-07-27T11:05:43Z</time>
      </trkpt>
      <trkpt lat="50.676110" lon="6.273456">
        <ele>0.000000</ele>
        <time>2009-07-27T11:05:43Z</time>
      </trkpt>
      <trkpt lat="50.675950" lon="6.272765">
        <ele>0.000000</ele>
        <time>2009-07-27T11:05:43Z</time>
      </trkpt>
      <trkpt lat="50.675815" lon="6.272217">
        <ele>0.000000</ele>
        <time>2009-07-27T11:05:43Z</time>
      </trkpt>
      <trkpt lat="50.675640" lon="6.271636">
        <ele>0.000000</ele>
        <time>2009-07-27T11:05:43Z</time>
      </trkpt>
      <trkpt lat="50.675485" lon="6.271181">
        <ele>0.000000</ele>
        <time>2009-07-27T11:05:43Z</time>
      </trkpt>
      <trkpt lat="50.675343" lon="6.270798">
        <ele>0.000000</ele>
        <time>2009-07-27T11:05:43Z</time>
      </trkpt>
      <trkpt lat="50.675154" lon="6.270391">
        <ele>0.000000</ele>
        <time>2009-07-27T11:05:43Z</time>
      </trkpt>
      <trkpt lat="50.674958" lon="6.269911">
        <ele>0.000000</ele>
        <time>2009-07-27T11:05:43Z</time>
      </trkpt>
      <trkpt lat="50.674799" lon="6.269547">
        <ele>0.000000</ele>
        <time>2009-07-27T11:05:43Z</time>
      </trkpt>
      <trkpt lat="50.674659" lon="6.269219">
        <ele>0.000000</ele>
        <time>2009-07-27T11:05:43Z</time>
      </trkpt>
      <trkpt lat="50.674548" lon="6.268953">
        <ele>0.000000</ele>
        <time>2009-07-27T11:05:43Z</time>
      </trkpt>
      <trkpt lat="50.674411" lon="6.268779">
        <ele>0.000000</ele>
        <time>2009-07-27T11:05:43Z</time>
      </trkpt>
      <trkpt lat="50.674196" lon="6.268500">
        <ele>0.000000</ele>
        <time>2009-07-27T11:05:43Z</time>
      </trkpt>
      <trkpt lat="50.674054" lon="6.268335">
        <ele>0.000000</ele>
        <time>2009-07-27T11:05:43Z</time>
      </trkpt>
      <trkpt lat="50.673789" lon="6.268123">
        <ele>0.000000</ele>
        <time>2009-07-27T11:05:43Z</time>
      </trkpt>
      <trkpt lat="50.673671" lon="6.268030">
        <ele>0.000000</ele>
        <time>2009-07-27T11:05:43Z</time>
      </trkpt>
      <trkpt lat="50.673470" lon="6.267815">
        <ele>0.000000</ele>
        <time>2009-07-27T11:05:43Z</time>
      </trkpt>
      <trkpt lat="50.673214" lon="6.267511">
        <ele>0.000000</ele>
        <time>2009-07-27T11:05:43Z</time>
      </trkpt>
      <trkpt lat="50.672874" lon="6.267067">
        <ele>0.000000</ele>
        <time>2009-07-27T11:05:43Z</time>
      </trkpt>
      <trkpt lat="50.672594" lon="6.266692">
        <ele>0.000000</ele>
        <time>2009-07-27T11:05:43Z</time>
      </trkpt>
      <trkpt lat="50.672211" lon="6.266150">
        <ele>0.000000</ele>
        <time>2009-07-27T11:05:43Z</time>
      </trkpt>
      <trkpt lat="50.671961" lon="6.265837">
        <ele>0.000000</ele>
        <time>2009-07-27T11:05:43Z</time>
      </trkpt>
      <trkpt lat="50.671694" lon="6.265544">
        <ele>0.000000</ele>
        <time>2009-07-27T11:05:43Z</time>
      </trkpt>
      <trkpt lat="50.671390" lon="6.265152">
        <ele>0.000000</ele>
        <time>2009-07-27T11:05:43Z</time>
      </trkpt>
      <trkpt lat="50.671009" lon="6.264692">
        <ele>0.000000</ele>
        <time>2009-07-27T11:05:43Z</time>
      </trkpt>
      <trkpt lat="50.670758" lon="6.264361">
        <ele>0.000000</ele>
        <time>2009-07-27T11:05:43Z</time>
      </trkpt>
      <trkpt lat="50.670573" lon="6.264081">
        <ele>0.000000</ele>
        <time>2009-07-27T11:05:43Z</time>
      </trkpt>
      <trkpt lat="50.670392" lon="6.263755">
        <ele>0.000000</ele>
        <time>2009-07-27T11:05:43Z</time>
      </trkpt>
      <trkpt lat="50.670178" lon="6.263276">
        <ele>0.000000</ele>
        <time>2009-07-27T11:05:43Z</time>
      </trkpt>
      <trkpt lat="50.669813" lon="6.262515">
        <ele>0.000000</ele>
        <time>2009-07-27T11:05:43Z</time>
      </trkpt>
      <trkpt lat="50.669570" lon="6.261974">
        <ele>0.000000</ele>
        <time>2009-07-27T11:05:43Z</time>
      </trkpt>
      <trkpt lat="50.669429" lon="6.261646">
        <ele>0.000000</ele>
        <time>2009-07-27T11:05:43Z</time>
      </trkpt>
      <trkpt lat="50.669256" lon="6.261165">
        <ele>0.000000</ele>
        <time>2009-07-27T11:05:43Z</time>
      </trkpt>
      <trkpt lat="50.669125" lon="6.260772">
        <ele>0.000000</ele>
        <time>2009-07-27T11:05:43Z</time>
      </trkpt>
      <trkpt lat="50.669057" lon="6.260594">
        <ele>0.000000</ele>
        <time>2009-07-27T11:05:43Z</time>
      </trkpt>
      <trkpt lat="50.668901" lon="6.260349">
        <ele>0.000000</ele>
        <time>2009-07-27T11:05:43Z</time>
      </trkpt>
      <trkpt lat="50.668782" lon="6.260183">
        <ele>0.000000</ele>
        <time>2009-07-27T11:05:43Z</time>
      </trkpt>
      <trkpt lat="50.668576" lon="6.259786">
        <ele>0.000000</ele>
        <time>2009-07-27T11:05:43Z</time>
      </trkpt>
      <trkpt lat="50.668424" lon="6.259485">
        <ele>0.000000</ele>
        <time>2009-07-27T11:05:43Z</time>
      </trkpt>
      <trkpt lat="50.668251" lon="6.259232">
        <ele>0.000000</ele>
        <time>2009-07-27T11:05:43Z</time>
      </trkpt>
      <trkpt lat="50.668030" lon="6.258935">
        <ele>0.000000</ele>
        <time>2009-07-27T11:05:43Z</time>
      </trkpt>
      <trkpt lat="50.667870" lon="6.258781">
        <ele>0.000000</ele>
        <time>2009-07-27T11:05:43Z</time>
      </trkpt>
      <trkpt lat="50.667717" lon="6.258653">
        <ele>0.000000</ele>
        <time>2009-07-27T11:05:43Z</time>
      </trkpt>
      <trkpt lat="50.667633" lon="6.258513">
        <ele>0.000000</ele>
        <time>2009-07-27T11:05:43Z</time>
      </trkpt>
      <trkpt lat="50.667553" lon="6.258308">
        <ele>0.000000</ele>
        <time>2009-07-27T11:05:43Z</time>
      </trkpt>
      <trkpt lat="50.667472" lon="6.258077">
        <ele>0.000000</ele>
        <time>2009-07-27T11:05:43Z</time>
      </trkpt>
      <trkpt lat="50.667463" lon="6.257922">
        <ele>0.000000</ele>
        <time>2009-07-27T11:05:43Z</time>
      </trkpt>
      <trkpt lat="50.667447" lon="6.257250">
        <ele>0.000000</ele>
        <time>2009-07-27T11:05:43Z</time>
      </trkpt>
      <trkpt lat="50.667426" lon="6.257115">
        <ele>0.000000</ele>
        <time>2009-07-27T11:05:43Z</time>
      </trkpt>
      <trkpt lat="50.667330" lon="6.256711">
        <ele>0.000000</ele>
        <time>2009-07-27T11:05:43Z</time>
      </trkpt>
      <trkpt lat="50.667309" lon="6.256540">
        <ele>0.000000</ele>
        <time>2009-07-27T11:05:43Z</time>
      </trkpt>
      <trkpt lat="50.667324" lon="6.256439">
        <ele>0.000000</ele>
        <time>2009-07-27T11:05:43Z</time>
      </trkpt>
      <trkpt lat="50.667434" lon="6.256205">
        <ele>0.000000</ele>
        <time>2009-07-27T11:05:43Z</time>
      </trkpt>
      <trkpt lat="50.667648" lon="6.255747">
        <ele>0.000000</ele>
        <time>2009-07-27T11:05:43Z</time>
      </trkpt>
      <trkpt lat="50.667769" lon="6.255467">
        <ele>0.000000</ele>
        <time>2009-07-27T11:05:43Z</time>
      </trkpt>
      <trkpt lat="50.667901" lon="6.254941">
        <ele>0.000000</ele>
        <time>2009-07-27T11:05:43Z</time>
      </trkpt>
      <trkpt lat="50.668034" lon="6.254460">
        <ele>0.000000</ele>
        <time>2009-07-27T11:05:43Z</time>
      </trkpt>
      <trkpt lat="50.668132" lon="6.254191">
        <ele>0.000000</ele>
        <time>2009-07-27T11:05:43Z</time>
      </trkpt>
      <trkpt lat="50.668248" lon="6.253975">
        <ele>0.000000</ele>
        <time>2009-07-27T11:05:43Z</time>
      </trkpt>
      <trkpt lat="50.668400" lon="6.253802">
        <ele>0.000000</ele>
        <time>2009-07-27T11:05:43Z</time>
      </trkpt>
      <trkpt lat="50.668650" lon="6.253615">
        <ele>0.000000</ele>
        <time>2009-07-27T11:05:43Z</time>
      </trkpt>
      <trkpt lat="50.668838" lon="6.253477">
        <ele>0.000000</ele>
        <time>2009-07-27T11:05:43Z</time>
      </trkpt>
      <trkpt lat="50.669036" lon="6.253301">
        <ele>0.000000</ele>
        <time>2009-07-27T11:05:43Z</time>
      </trkpt>
      <trkpt lat="50.669295" lon="6.253013">
        <ele>0.000000</ele>
        <time>2009-07-27T11:05:43Z</time>
      </trkpt>
      <trkpt lat="50.669475" lon="6.252812">
        <ele>0.000000</ele>
        <time>2009-07-27T11:05:43Z</time>
      </trkpt>
      <trkpt lat="50.669637" lon="6.252548">
        <ele>0.000000</ele>
        <time>2009-07-27T11:05:43Z</time>
      </trkpt>
      <trkpt lat="50.669757" lon="6.252241">
        <ele>0.000000</ele>
        <time>2009-07-27T11:05:43Z</time>
      </trkpt>
      <trkpt lat="50.669857" lon="6.251835">
        <ele>0.000000</ele>
        <time>2009-07-27T11:05:43Z</time>
      </trkpt>
      <trkpt lat="50.669847" lon="6.251653">
        <ele>0.000000</ele>
        <time>2009-07-27T11:05:43Z</time>
      </trkpt>
      <trkpt lat="50.669689" lon="6.251089">
        <ele>0.000000</ele>
        <time>2009-07-27T11:05:43Z</time>
      </trkpt>
      <trkpt lat="50.669556" lon="6.250615">
        <ele>0.000000</ele>
        <time>2009-07-27T11:05:43Z</time>
      </trkpt>
      <trkpt lat="50.669373" lon="6.249953">
        <ele>0.000000</ele>
        <time>2009-07-27T11:05:43Z</time>
      </trkpt>
      <trkpt lat="50.669222" lon="6.249434">
        <ele>0.000000</ele>
        <time>2009-07-27T11:05:43Z</time>
      </trkpt>
      <trkpt lat="50.669001" lon="6.248647">
        <ele>0.000000</ele>
        <time>2009-07-27T11:05:43Z</time>
      </trkpt>
      <trkpt lat="50.668747" lon="6.247688">
        <ele>0.000000</ele>
        <time>2009-07-27T11:05:43Z</time>
      </trkpt>
      <trkpt lat="50.668653" lon="6.247384">
        <ele>0.000000</ele>
        <time>2009-07-27T11:05:43Z</time>
      </trkpt>
      <trkpt lat="50.668595" lon="6.247115">
        <ele>0.000000</ele>
        <time>2009-07-27T11:05:43Z</time>
      </trkpt>
      <trkpt lat="50.668520" lon="6.246874">
        <ele>0.000000</ele>
        <time>2009-07-27T11:05:43Z</time>
      </trkpt>
      <trkpt lat="50.668421" lon="6.246589">
        <ele>0.000000</ele>
        <time>2009-07-27T11:05:43Z</time>
      </trkpt>
      <trkpt lat="50.668244" lon="6.246217">
        <ele>0.000000</ele>
        <time>2009-07-27T11:05:43Z</time>
      </trkpt>
      <trkpt lat="50.668117" lon="6.245943">
        <ele>0.000000</ele>
        <time>2009-07-27T11:05:43Z</time>
      </trkpt>
    </trkseg>
  </trk>

</gpx>
